Погода Нижний Тагил

Хотите узнать прогноз погоды Нижний Тагил? Тогда Вам сюда: Погода Нижний Тагил

Поиск расширенной информации на нашем сайте:

Полезная информация:

Новости сайта



02.01.2020
Опубликован Долгосрочный прогноз погоды по городам России и ближнего зарубежья на январь 2020 года.
Карты: Прогноз на январь и февраль 2020 года, Сравнение прогнозируемой аномалии приземной температуры воздуха на январь 2020 года по разным моделям.




Погода Нижний Тагил - сегодня

Время (UTC), дата Ветер
(°,м/с) 
Видим.   Явления Облачность Т
(°С)
Тd
(°С)
f(%) Тe
(°С)
Pmin
(гПа)
dP
(гПа)
Po
(мм)
O2
(г/м3)
Тmin Tmax R s Состояние
почвы
18 28.11.20 110 (В) 20000 м  {снег}  10/0 средняя 
[As trans]
-19.2 -20.9 86 -19  1046.6  1.1  758  330           
21 28.11.20 тихо ()   4000 м  слаб. снег  10/0 средняя 
[As trans]
-20.5 -22.5 84 -21  1048  1.2             
00 29.11.20 090 (В) 4000 м  слаб. снег  10/0 средняя 
[As trans]
-21.4 -23.5 83 -22  1046.1  1.1  760  334           
03 29.11.20 160 (Ю) 20000 м  {снег}  10/0 средняя 
[As trans]
-21.4 -23.4 84 -22  1049.9  0.6  760  334  -21.8    0.4  10  равномерный
сухой снег
100% 
06 29.11.20 тихо ()   20000 м  {снег}  ясно 
-18.7 -20.8 83 -19  1050.7  761  331           
09 29.11.20 210 (ЮЗ) 20000 м    ясно 
-12.3 -14.8 82 -12  1050.1  0.4  761  323           
12 29.11.20 200 (Ю) 20000 м    ясно 
-14.3 -15.6 90 -14  1050.8  0.4  762  325           
15 29.11.20 190 (Ю) 20000 м    ясно 
-16.6 -18 89 -17  1051.9  0.7  762  328    -11.8       
18 29.11.20 тихо ()   20000 м    ясно 
-16.5 -17.9 89 -17  1051.7  762  328           
21 29.11.20 150 (ЮВ) 20000 м    ясно 
-17.5 -19.2 87 -18  1052.3  0.4  762  330           
00 30.11.20 тихо ()   20000 м    ясно 
-17.3 -19 87 -17  1052.5  0.2  763  330           
03 30.11.20 180 (Ю) 20000 м    ясно 
-17.2 -18.7 88 -17  1052.6  0.1  763  329  -18.5      равномерный
сухой снег
100% 
06 30.11.20 210 (ЮЗ) 20000 м    ясно 
-13.7 -15.3 88 -14  1053.3  763  325           
09 30.11.20 210 (ЮЗ) 20000 м    ясно 
-9.3 -11.7 83 -9  1052  -0.5  763  319           
12 30.11.20 220 (ЮЗ) 20000 м    ясно 
-12.6 -13.8 91 -15  1053.1  0.6  763  324           
15 30.11.20 230 (ЮЗ) 20000 м    ясно 
-14.6 -15.8 91 -15  1053.6  0.2  764  326    -9.1       
18 30.11.20 240 (ЮЗ) 20000 м    ясно 
-15 -16.3 90 -17  1053.5  -0.2  763  327           
21 30.11.20 260 (З) 20000 м    8/8 600 м 
[Sc]
-12.8 -14 91 -13  1052.4  -0.7  763  324           
00 01.12.20 230 (ЮЗ) 20000 м    ясно 
-15.1 -16.5 89 -15  1052.3  -0.4  763  327           
03 01.12.20 260 (З) 20000 м    ясно 
-15.7 -17.2 88 -16  1052.4  763  327  -15.7      равномерный
сухой снег
100% 
06 01.12.20 220 (ЮЗ) 20000 м    10/0 средняя 
[As trans]
-11.6 -12.7 92 -11  1051.7  -0.1  763  322  -15.9         
09 01.12.20 200 (Ю) 20000 м    10/0 средняя 
[As trans]
-8.1 -9.2 92 -8  1050.3  -1  762  317           
12 01.12.20 210 (ЮЗ) 20000 м    10/0 средняя 
[As trans]
-7.9 -8.9 93 -8  1049.9  -0.4  761  317           
15 01.12.20 250 (З) 20000 м    10/0 средняя 
[As trans]
-7.8 -8.7 93 -8  1049.1  -0.8  761  317    -7.6       
18 01.12.20 250 (З) 20000 м    10/0 средняя 
[As trans]
-8.3 -9.3 92 -8  1048.4  -0.6  760  317           
Время (UTC), дата Ветер
(°,м/с) 
Видим.   Явления Облачность Т
(°С)
Тd
(°С)
f(%) Тe
(°С)
Pmin
(гПа)
dP
(гПа)
Po
(мм)
O2
(г/м3)
Тmin Tmax R s Состояние
почвы

Для получения пояснительной информации подведите курсор к названию столбца.

ПОГОДА Нижний Тагил - архив

Всё, что Вы хотите узнать о погоде Нижний Тагил - удобно и подробно!

Выберите нужную дату (начиная с 1 января 2019* года) и нажмите кнопку "Найти".
Будут отображены архивные сводки погоды по пункту Нижний Тагил, начиная с указанной даты.


Отображать данные в формате CSV (для использования в таблицах Excel)


Внимание! Наш архив погоды предназначен исключительно для личного некоммерческого использования в познавательных целях. Если Вам необходимы официальные справки о состоянии погоды (для производственных, юридических, коммерческих и т.п. целей), обращайтесь в органы Росгидромета.

*Примечание: данная дата относится к архиву по метеостанциям СССР (Россия, СНГ, Балтия).
Архив по метеостанциям Зарубежной Европы и Азии (кроме Китая) хранится 10 дней, по другим регионам земного шара (Китай, Африка, Америка, Австралия, Океания) - 1 день.

Нижний Тагил - район местоположения метеостанции


Название, широта, долгота, высота метеостанции:
Нижний Тагил 57.9°ш. 60.1°д. 260 м над ур. моря [Российская Федерация]

Дополнительная информация

В oтличие oт бoльшинства пoгoдных сайтoв мы публикуем пoдрoбную метеoинфoрмацию в детальнoм прoфессиoнальнoм фoрмате.

Характеристики температуры и влажнoсти вoздуха измеряются на высoте 2 м в тени вдали oт зданий и деревьев.
Скoрoсть ветра измеряется на высoте 10 м (на урoвне рoста челoвека скoрoсть ветра ниже в 1.5-2 раза). Если метеoстанция нахoдится в гoрoде или в лесу, тo скoрoсть ветра занижена на 2-4 м/с пo сравнению с oткрытым местoм. Скoрoсть ветра над акватoриями крупных рек и oзёр, а также на вершинах хoлмoв на 2-5 м/с выше, чем в oбычных услoвиях.
Атмoсфернoе давление в разных тoчках местнoсти мoжет значительнo oтличаться oт давления на метеoстанции, в зависимoсти oт услoвий рельефа (при пoдъёме на 10 м давление пoнижается примернo на 1 мм рт.ст.).